Regional Weather Roundup
Issued by NWS Kansas City/Pleasant Hill, MO

Home | Current Version | Previous Version | Text Only | Print | Product List | Glossary On
Versions: 1 2 3 4 5 6 7 8 9 10 11 12 13 14 15 16 17 18 19 20 21 22 23 24 25 26 27 28
000
ASUS43 KEAX 271410
RWREAX

WEATHER ROUNDUP FOR EASTERN KANSAS AND NORTHWEST MISSOURI
NATIONAL WEATHER SERVICE KANSAS CITY/PLEASANT HILL MO
900 AM CDT TUE SEP 27 2016

KSZ040-057-103>105-MOZ028-029-037-043-271500-
...KANSAS CITY METROPOLITAN AREA...

CITY           SKY/WX    TMP DP  RH WIND       PRES   REMARKS
K.C. INTL      SUNNY     59  47  64 W8        30.04F
K.C. DOWNTOWN  SUNNY     60  49  66 SW6       30.04F
LEES SUMMIT    SUNNY     60  48  64 SW8       30.05F
OLATHE - IXD   SUNNY     58  48  69 SW8       30.07S
OLATHE - OJC   SUNNY     58  46  64 W9        30.06F
LAWRENCE       SUNNY     57  54  89 CALM      30.06S

$$

MOZ001>008-011>017-020>025-030>033-038>040-044>046-053-054-271500-
...NORTHERN AND CENTRAL MISSOURI...

CITY           SKY/WX    TMP DP  RH WIND       PRES   REMARKS
ST. JOSEPH     SUNNY     57  50  77 S3        30.04S
MOSBY          SUNNY     59  52  77 CALM      30.04S
WHITEMAN AFB   SUNNY     60  48  64 W8        30.05S
CLINTON        SUNNY     57  48  72 SW9       30.08S
SEDALIA        SUNNY     62  46  55 W7        30.07S
WARSAW         NOT AVBL
CHILLICOTHE      N/A     59  50  72 CALM      30.04S
KIRKSVILLE     SUNNY     56  48  74 W7        30.01S

$$

MOZ041-047>049-056>058-063>065-088>090-097-271500-
...EASTERN AND SOUTHERN MISSOURI...

CITY           SKY/WX    TMP DP  RH WIND       PRES   REMARKS
ST. LOUIS INTL SUNNY     65  45  48 W14       30.02S
SPIRIT OF STL  SUNNY     62  48  60 W12       30.01F
COLUMBIA       SUNNY     61  46  57 W10       30.05S
JEFFERSON CITY SUNNY     61  47  59 W6        30.06S
ROLLA          SUNNY     57  46  66 SW9       30.07S
OSAGE BEACH    SUNNY     57  48  72 W6        30.09S
SPRINGFIELD    SUNNY     61  42  49 W7        30.11S
BRANSON        SUNNY     57  46  67 W3        30.14R
JOPLIN         SUNNY     59  50  72 SW7       30.13S
WEST PLAINS    SUNNY     60  46  59 W6        30.12R

$$

IAZ060-094-KSZ022-034>040-054-083-096-NEZ052-066-093-271500-
...KANSAS...SOUTHEAST NEBRASKA AND IOWA...

CITY           SKY/WX    TMP DP  RH WIND       PRES   REMARKS
TOPEKA         SUNNY     59  51  75 SW3       30.05F
MANHATTAN      SUNNY     56  49  77 SW8       30.06F
EMPORIA        SUNNY     65  46  50 SW8       30.07F
CHANUTE        SUNNY     60  49  66 SW7       30.09F
WICHITA        SUNNY     61  50  67 SW5       30.09F
OMAHA          MOSUNNY   57  48  72 CALM      30.04S
LINCOLN        SUNNY     54  48  80 CALM      30.06S
FALLS CITY     SUNNY     56  49  77 W8        30.03S
LAMONI         SUNNY     57  48  72 W6        30.01S
DES MOINES     MOSUNNY   56  46  69 W5        29.99S

$$





USA.gov is the U.S. government's official web portal to all federal, state and local government web resources and services.